Location: Cuiry
(49.3858°N, 3.7708°E)
Time: 23:45:44
(UTC+00:00)

Cosmos 2181 Rocket - Pass Details

Date: 12 January 2026
Orbit: 952 x 1013 km, 82.9° (Epoch: 18 February)

Event Time Altitude Azimuth Distance (km) Brightness Sun altitude
Rises 17:22:42 0° 161° (SSE) 3,617 7.0 -11.4°
Reaches altitude 10° 17:25:20 10° 154° (SSE) 2,679 6.2 -11.8°
Maximum altitude 17:30:55 39° 88° (E) 1,411 4.4 -12.7°
Drops below altitude 10° 17:36:36 10° 22° (NNE) 2,724 6.0 -13.6°
Sets 17:39:17 0° 15° (NNE) 3,685 6.7 -14.0°
